This demonstration page uses our WeatherBlox Daily Observations layout. Learn more.

Left ArrowRight Arrow

41.86663, -103.66717

Hourly Observations for April 6, 2017

Temp ( °F °C ) Dew Point ( °F °C ) Humidity (%) Winds ( mph kmh ) Pressure ( in mb ) Visibility ( mi km ) Precip ( " mm )
12:53 am 00:53 Cloudy 38 3.3 27 -2.8 65 65 N N/A 30.14 1021 10 16.0934 N/A
1:53 am 01:53 Cloudy 37 2.8 27 -2.8 67 67 SE 6 9 30.13 1020 10 16.0934 N/A
2:53 am 02:53 Cloudy 37 2.8 27 -2.8 67 67 E 5 7 30.12 1020 10 16.0934 N/A
3:53 am 03:53 Mostly Cloudy 37 2.8 25 -3.9 62 62 N N/A 30.13 1020 10 16.0934 N/A
4:53 am 04:53 Clear 31 -0.6 24 -4.4 76 76 ENE 5 7 30.14 1021 10 16.0934 N/A
5:53 am 05:53 Clear 29 -1.7 23 -5 78 78 NNE 5 7 30.16 1021 10 16.0934 N/A
6:53 am 06:53 Sunny 30 -1.1 23 -5 75 75 NNE 5 7 30.19 1022 10 16.0934 N/A
7:53 am 07:53 Sunny 38 3.3 29 -1.7 70 70 E 5 7 30.19 1022 10 16.0934 N/A
8:53 am 08:53 Sunny 43 6.1 28 -2.2 56 56 SE 5 7 30.2 1023 10 16.0934 N/A
9:53 am 09:53 Sunny 48 8.9 28 -2.2 46 46 ESE 7 11 30.19 1022 10 16.0934 N/A
10:53 am 10:53 Sunny 54 12.2 29 -1.7 38 38 ESE 10 17 30.18 1022 10 16.0934 N/A
11:53 am 11:53 Sunny 58 14.4 30 -1.1 35 35 SSE 8 13 30.16 1021 10 16.0934 N/A
12:53 pm 12:53 Sunny 62 16.7 28 -2.2 28 28 SSE 9 15 30.12 1020 10 16.0934 N/A
1:53 pm 13:53 Sunny 64 17.8 29 -1.7 27 27 ESE 10 17 30.09 1019 10 16.0934 N/A
2:53 pm 14:53 Sunny 66 18.9 29 -1.7 25 25 ESE 12 19 30.04 1017 10 16.0934 N/A
3:53 pm 15:53 Sunny 67 19.4 29 -1.7 24 24 ESE 12 19 30.02 1017 10 16.0934 N/A
4:53 pm 16:53 Sunny 67 19.4 28 -2.2 23 23 SE 5 7 30 1016 10 16.0934 N/A
5:53 pm 17:53 Sunny 67 19.4 30 -1.1 25 25 ESE 13 20 30 1016 10 16.0934 N/A
6:53 pm 18:53 Sunny 62 16.7 31 -0.6 31 31 SE 8 13 30 1016 10 16.0934 N/A
7:53 pm 19:53 Clear 56 13.3 32 undefined 40 40 ESE 7 11 29.98 1015 10 16.0934 N/A
8:53 pm 20:53 Clear 50 10 33 0.6 52 52 ESE 8 13 29.99 1016 10 16.0934 N/A
9:53 pm 21:53 Clear 49 9.4 33 0.6 55 55 ESE 12 19 29.99 1016 10 16.0934 N/A
10:53 pm 22:53 Clear 53 11.7 28 -2.2 38 38 SE 14 22 29.96 1015 10 16.0934 N/A
11:53 pm 23:53 Clear 52 11.1 29 -1.7 41 41 SE 13 20 29.93 1014 10 16.0934 N/A

Powered by AerisWeather